Printer-friendly version

IAU Minor Planet Center

Minor Planet Center

MPEC 2003-C53 : S/2001 J 10

The following Minor Planet Electronic Circular may be linked-to from your own Web pages, but must not otherwise be redistributed electronically.


Read MPEC 2003-C52 Read MPEC 2003-C54


M.P.E.C. 2003-C53                                Issued 2003 Feb. 10, 15:40 UT

     The Minor Planet Electronic Circulars contain information on unusual
         minor planets and routine data on comets.  They are published
   on behalf of Commission 20 of the International Astronomical Union by the
          Minor Planet Center, Smithsonian Astrophysical Observatory,
                          Cambridge, MA 02138, U.S.A.

             Prepared using the Tamkin Foundation Computer Network

                              MPC@CFA.HARVARD.EDU
          URL http://cfa-www.harvard.edu/iau/mpc.html  ISSN 1523-6714

                                  S/2001 J 10

                           Revision to MPEC 2002-J54

Additional Observations:
    SK01J100  C2003 02 05.41688 09 08 02.55 +17 03 08.2          23.1 R      568
    SK01J100  C2003 02 05.48514 09 08 00.30 +17 03 15.4                      568
    SK01J100  C2003 02 06.33737 09 07 33.01 +17 04 46.0                      568
    SK01J100  C2003 02 06.39490 09 07 31.12 +17 04 52.1                      568

Observer details:
568 Mauna Kea.  Observers S. S. Sheppard, D. C. Jewitt, J. Kleyna.  Measurer
    S. S. Sheppard.  Subaru 8.3-m telescope + CCD.

Orbital elements:
S/2001 J 10
Epoch 2002 Nov. 22.0 TT = JDT 2452600.5                 MPC
M  47.51855              (2000.0)            P               Q
n   0.64931790     Peri.   87.45169     +0.77979709     -0.34741866
a   0.1300571      Node    67.55811     -0.47527261     -0.86999033
e   0.1279018      Incl.  145.70479     +0.40747078     -0.34988155
P   1.52           H   16.4           P/d   554.43
Residuals in seconds of arc
011211 568  0.1+  0.2-    020108 568  0.5-  0.1+    030205 568  0.4-  0.3+
011211 568  0.0   0.1-    020108 568  0.4-  0.2+    030206 568  0.3+  0.2-
011211 568  0.0   0.1-    020211 568  0.2-  0.1-    030206 568  0.4+  0.4-
011218 568  0.4-  0.2+    020211 568  0.3+  0.1-
011218 568  1.2+  0.1+    030205 568  0.5-  0.4+

Ephemeris:
    S/2001 J 10                                                  q = 0.1134
Date    TT    R. A. (2000) Decl.     Delta     r_J   dR.A. ("/m)  dDecl.m1"/')
2003 02 10    09 05.62   +17 11.2    4.321    0.135  5634+/6.55+  2998-/ 50.0-
2003 02 20    09 00.46   +17 27.7    4.371    0.136  5531+/6.44+  3290-/ 54.8-
2003 03 02    08 55.86   +17 41.7    4.451    0.138  5355+/6.25+  3527-/ 58.8-
2003 03 12    08 52.11   +17 52.2    4.557    0.140  5114+/5.97+  3709-/ 61.8-
2003 03 22    08 49.44   +17 58.7    4.686    0.141  4816+/5.63+  3837-/ 64.0-
2003 04 01    08 47.97   +18 00.9    4.832    0.142  4466+/5.22+  3916-/ 65.3-
2003 04 11    08 47.74   +17 58.8    4.991    0.143  4072+/4.76+  3949-/ 65.8-
2003 04 21    08 48.73   +17 52.6    5.159    0.144  3639+/4.25+  3940-/ 65.7-
2003 05 01    08 50.86   +17 42.3    5.330    0.145  3174+/3.70+  3893-/ 64.9-
2003 05 11    08 54.04   +17 28.2    5.500    0.146  2683+/3.13+  3809-/ 63.5-
2003 05 21    08 58.15   +17 10.5    5.665    0.146  2170+/2.52+  3692-/ 61.5-
2003 05 31    09 03.08   +16 49.5    5.822    0.147  1642+/1.91+  3543-/ 59.1-
2003 06 10    09 08.72   +16 25.2    5.968    0.147  1105+/1.28+  3365-/ 56.1-
2003 06 20    09 14.94   +15 58.1    6.099    0.147   563+/0.65+  3160-/ 52.7-
2003 06 30    09 21.65   +15 28.3    6.215    0.146    22+/0.03+  2929-/ 48.8-
2003 07 10    09 28.76   +14 56.1    6.312    0.146   512-/0.59-  2675-/ 44.6-

Brian G. Marsden             (C) Copyright 2003 MPC           M.P.E.C. 2003-C53

Read MPEC 2003-C52 Read MPEC 2003-C54


Our Web policy. Index to the CBAT/MPC/ICQ pages.


Valid HTML 4.01!